[[{"header":{"parameterUnit":"m.s-1","parameterCategory":1,"la1":30.2992,"la2":30.254,"lo1":-89.0895,"lo2":-89.0443,"dy":0.0025,"dx":0.0025,"nx":19,"ny":19,"refTime":"2026-04-29T09:00:00:Z","depth":0,"parameterNumber":2,"parameterNumberName":"U-component_of_WINDS"},"data":[0,0,0,3.1798,3.1801,3.1936,3.1936,3.2133,3.2135,0,0,0,0,0,0,0,0,0,0,0,3.177,3.1772,3.1797,3.1801,3.1936,3.1936,3.2132,3.2135,0,0,0,0,0,0,0,0,0,0,0,3.1769,3.1771,3.1774,3.1802,3.1936,3.1936,3.2132,3.2022,0,0,0,0,0,0,0,0,0,0,3.1887,3.1874,3.1771,3.1774,3.1802,3.1936,3.1936,3.2016,3.2029,3.2081,0,3.2129,0,3.2135,3.2149,3.215,0,0,0,3.1792,3.1863,3.1888,3.1774,3.1804,3.1935,3.1872,3.2023,3.2037,3.2098,3.2132,3.2139,3.2138,3.215,3.2152,3.2477,3.2478,0,0,3.1785,3.1802,3.1878,3.1898,3.1876,3.1868,3.1877,3.2031,3.207,3.2132,3.2143,3.2142,3.2152,3.2154,3.2475,3.2477,0,0,0,3.1769,3.1797,3.1817,3.189,3.1913,3.1872,3.1882,3.2063,3.2068,3.2145,3.2144,3.2153,3.2156,3.2473,3.2476,3.2585,0,0,0,3.1764,3.1788,3.1815,3.1827,3.191,3.1989,3.1911,3.2058,3.2075,3.2143,3.2153,3.2158,3.247,3.2474,3.2578,3.2634,0,0,0,3.1757,3.1787,3.1811,3.1827,3.1886,3.1986,3.2,3.2061,3.2075,3.215,3.2158,3.2469,3.2474,3.2571,3.2623,3.2723,0,0,0,3.1755,3.1909,3.1813,3.1984,3.1885,3.2053,3.1999,3.2125,3.2202,3.2154,3.2471,3.2475,3.2569,3.2616,3.2716,3.2809,3.2849,0,0,3.1958,3.1934,3.2033,3.1951,3.2141,3.2031,3.2238,3.2294,3.2288,3.2415,3.2422,3.258,3.2622,3.2721,3.3075,3.3107,0,0,0,3.2103,3.2175,3.2221,3.2295,3.234,3.2383,3.2406,3.2427,3.2533,3.2356,3.2644,3.2669,3.2726,3.277,3.2797,3.2845,3.2497,3.2496,3.2496,3.2415,3.2395,3.2558,3.2555,3.2628,3.2648,3.2705,3.2737,3.2699,3.2767,3.2804,3.3021,3.3072,3.3093,3.3143,3.2853,3.2854,3.2854,3.2855,3.2709,3.2806,3.275,3.2886,3.2866,3.2982,3.3009,3.2977,3.3082,3.2992,3.3041,3.2942,3.3129,3.3172,3.2863,3.2861,3.286,3.2859,3.2859,3.2909,3.2952,3.2974,3.3077,3.3159,3.3152,3.3255,3.3233,3.3214,3.3264,3.3299,3.3297,3.3291,3.3283,3.3283,3.3284,3.3285,3.3285,3.3286,3.3107,3.3128,3.3216,3.3276,3.332,3.3375,3.3398,3.3441,3.3483,3.346,3.346,3.3414,3.3151,3.3084,3.3297,3.3295,3.3294,3.3293,3.3292,3.3409,3.3337,3.3473,3.3517,3.3585,3.3668,3.3639,3.3729,3.3762,3.3813,3.3757,3.3567,3.354,3.3518,3.3463,3.3761,3.3761,3.3761,3.3761,3.3576,3.3561,3.3694,3.3765,3.3832,3.382,3.3975,3.3995,3.4004,3.4023,3.3978,3.3903,3.3882,3.3868,3.3839,3.3786,3.416,3.416,3.4161,3.376,3.375,3.3884,3.389,3.3943,3.3988,3.4133,3.4218,3.4214,3.4176,3.4038,3.4021,3.39,3.3862,3.3819,3.3774,3.3677,0,0]},{"header":{"parameterUnit":"m.s-1","parameterCategory":1,"la1":30.2992,"la2":30.254,"lo1":-89.0895,"lo2":-89.0443,"dy":0.0025,"dx":0.0025,"nx":19,"ny":19,"refTime":"2026-04-29T09:00:00:Z","depth":0,"parameterNumber":3,"parameterNumberName":"V-component_of_WINDS"},"data":[0,0,0,3.7222,3.7225,3.736,3.7361,3.753,3.7532,0,0,0,0,0,0,0,0,0,0,0,3.7183,3.7184,3.7221,3.7225,3.736,3.7361,3.753,3.7532,0,0,0,0,0,0,0,0,0,0,0,3.7182,3.7184,3.7185,3.7225,3.736,3.7361,3.753,3.7428,0,0,0,0,0,0,0,0,0,0,3.7297,3.7263,3.7183,3.7185,3.7226,3.736,3.7361,3.7423,3.7434,3.7469,0,3.7503,0,3.752,3.7543,3.7544,0,0,0,3.7223,3.7254,3.729,3.7186,3.7227,3.736,3.7298,3.7429,3.7442,3.7483,3.7505,3.7511,3.7523,3.7544,3.7545,3.7757,3.7758,0,0,3.7215,3.7207,3.7281,3.7298,3.7281,3.7294,3.7303,3.7437,3.7459,3.7506,3.7515,3.7526,3.7546,3.7547,3.7756,3.7757,0,0,0,3.7195,3.7202,3.7234,3.7291,3.7316,3.7298,3.7308,3.7453,3.7464,3.7517,3.7528,3.7547,3.7549,3.7755,3.7757,3.7803,0,0,0,3.7191,3.719,3.7231,3.7227,3.7313,3.7387,3.7321,3.7455,3.747,3.7527,3.7547,3.755,3.7754,3.7756,3.7799,3.7825,0,0,0,3.7173,3.7188,3.7209,3.7227,3.7285,3.7385,3.7404,3.7458,3.7477,3.7544,3.7551,3.7753,3.7756,3.7795,3.7819,3.7877,0,0,0,3.7152,3.7247,3.7209,3.7319,3.7284,3.7414,3.7403,3.7499,3.7562,3.7547,3.7754,3.7757,3.7794,3.7816,3.7874,3.7924,3.7945,0,0,3.7267,3.726,3.7326,3.7296,3.7431,3.7393,3.7533,3.7598,3.761,3.7706,3.7712,3.78,3.7819,3.7876,3.8066,3.8083,0,0,0,3.7359,3.7406,3.7443,3.7504,3.7558,3.7604,3.7648,3.7672,3.7755,3.7659,3.7838,3.7849,3.7883,3.7907,3.7921,3.795,3.7768,3.7768,3.7767,3.7508,3.7521,3.7629,3.7658,3.7718,3.7763,3.7811,3.7849,3.7844,3.7886,3.7914,3.8028,3.8056,3.8067,3.8096,3.7943,3.7943,3.7943,3.7943,3.7676,3.7743,3.7735,3.7837,3.7849,3.7933,3.7979,3.7972,3.805,3.8008,3.8038,3.7989,3.8084,3.8111,3.7947,3.7946,3.7946,3.7945,3.7945,3.7774,3.7808,3.7837,3.7927,3.7994,3.8019,3.8095,3.8103,3.811,3.8141,3.817,3.8169,3.8168,3.8155,3.8155,3.8155,3.8156,3.8156,3.8156,3.7863,3.7894,3.7959,3.8024,3.8064,3.8117,3.8163,3.8201,3.8245,3.8245,3.8245,3.8233,3.8093,3.8056,3.8162,3.8161,3.8161,3.816,3.816,3.8024,3.799,3.8089,3.813,3.8206,3.827,3.8281,3.8358,3.8391,3.8427,3.841,3.8305,3.8298,3.8287,3.8256,3.8409,3.8409,3.8409,3.8409,3.8105,3.8104,3.8207,3.8271,3.8334,3.8354,3.8462,3.8498,3.8529,3.855,3.8529,3.849,3.8479,3.8478,3.8463,3.8434,3.8628,3.8628,3.8629,3.8205,3.8209,3.8302,3.8335,3.8395,3.8445,3.8548,3.8618,3.8646,3.8638,3.8565,3.8556,3.8493,3.8472,3.846,3.8437,3.8385,0,0]}]]